Time,TemperatureF,DewpointF,PressureIn,WindDirection,WindDirectionDegrees,WindSpeedMPH,WindSpeedGustMPH,Humidity,HourlyPrecipIn,Conditions,Clouds,dailyrainin,SoftwareType,DateUTC
2013-05-10 00:01:00,45.8,42.2,30.14,WSW,238,0.0,0.0,87,0.00,,SCT,0.00,VWS V14.01,2013-05-10 07:01:00,
2013-05-10 00:06:00,45.6,42.0,30.14,WSW,240,0.0,2.0,87,0.00,,SCT,0.00,VWS V14.01,2013-05-10 07:06:00,
2013-05-10 00:11:00,45.4,41.8,30.14,NW,305,1.0,5.0,87,0.00,,SCT,0.00,VWS V14.01,2013-05-10 07:11:00,
2013-05-10 00:16:00,45.2,41.6,30.14,NW,314,4.0,4.0,87,0.00,,SCT,0.00,VWS V14.01,2013-05-10 07:16:00,
2013-05-10 00:21:00,45.2,41.6,30.13,NNW,340,2.0,5.0,87,0.00,,SCT,0.00,VWS V14.01,2013-05-10 07:21:00,
2013-05-10 00:26:00,45.2,41.9,30.14,North,355,4.0,5.0,88,0.00,,SCT,0.00,VWS V14.01,2013-05-10 07:26:00,
2013-05-10 00:31:00,45.4,42.1,30.13,North,355,4.0,5.0,88,0.00,,SCT,0.00,VWS V14.01,2013-05-10 07:31:00,
2013-05-10 00:36:00,45.6,42.0,30.14,WNW,286,2.0,5.0,87,0.00,,SCT,0.00,VWS V14.01,2013-05-10 07:36:00,
2013-05-10 00:41:00,45.7,42.1,30.14,WNW,298,0.0,6.0,87,0.00,,SCT,0.00,VWS V14.01,2013-05-10 07:41:00,
2013-05-10 00:46:00,45.6,42.0,30.14,WNW,300,0.0,4.0,87,0.00,,SCT,0.00,VWS V14.01,2013-05-10 07:46:00,
2013-05-10 00:51:00,45.6,42.0,30.14,WNW,301,0.0,4.0,87,0.00,,SCT,0.00,VWS V14.01,2013-05-10 07:51:00,
2013-05-10 00:56:00,45.5,41.9,30.14,WNW,300,0.0,5.0,87,0.00,,SCT,0.00,VWS V14.01,2013-05-10 07:56:00,
2013-05-10 01:01:00,45.4,41.8,30.13,WNW,300,0.0,1.0,87,0.00,,SCT,0.00,VWS V14.01,2013-05-10 08:01:00,
2013-05-10 01:06:00,45.1,41.5,30.14,WNW,300,0.0,1.0,87,0.00,,SCT,0.00,VWS V14.01,2013-05-10 08:06:00,
2013-05-10 01:11:00,44.9,41.3,30.13,WNW,300,0.0,1.0,87,0.00,,SCT,0.00,VWS V14.01,2013-05-10 08:11:00,
2013-05-10 01:16:00,44.7,41.1,30.13,WNW,300,0.0,0.0,87,0.00,,SCT,0.00,VWS V14.01,2013-05-10 08:16:00,
2013-05-10 01:21:00,44.5,40.9,30.13,WNW,300,0.0,0.0,87,0.00,,SCT,0.00,VWS V14.01,2013-05-10 08:21:00,
2013-05-10 01:26:00,44.3,40.7,30.13,WNW,301,0.0,0.0,87,0.00,,SCT,0.00,VWS V14.01,2013-05-10 08:26:00,
2013-05-10 01:31:00,44.2,40.6,30.13,WNW,301,0.0,0.0,87,0.00,,SCT,0.00,VWS V14.01,2013-05-10 08:31:00,
2013-05-10 01:36:00,44.1,40.5,30.12,WNW,301,0.0,1.0,87,0.00,,SCT,0.00,VWS V14.01,2013-05-10 08:36:00,
2013-05-10 01:41:00,44.0,40.7,30.13,North,360,0.0,3.0,88,0.00,,SCT,0.00,VWS V14.01,2013-05-10 08:41:00,
2013-05-10 01:46:00,44.1,40.8,30.13,North,360,0.0,1.0,88,0.00,,SCT,0.00,VWS V14.01,2013-05-10 08:46:00,
2013-05-10 01:51:00,44.1,40.8,30.13,North,360,0.0,1.0,88,0.00,,SCT,0.00,VWS V14.01,2013-05-10 08:51:00,
2013-05-10 01:56:00,44.0,40.7,30.12,North,360,0.0,1.0,88,0.00,,SCT,0.00,VWS V14.01,2013-05-10 08:56:00,
2013-05-10 02:01:00,44.0,40.7,30.12,North,360,0.0,0.0,88,0.00,,SCT,0.00,VWS V14.01,2013-05-10 09:01:00,
2013-05-10 02:06:00,44.0,40.7,30.12,North,360,0.0,0.0,88,0.00,,SCT,0.00,VWS V14.01,2013-05-10 09:06:00,
2013-05-10 02:11:00,43.9,40.6,30.12,North,350,6.0,6.0,88,0.00,,SCT,0.00,VWS V14.01,2013-05-10 09:11:00,
2013-05-10 02:16:00,44.1,40.8,30.12,North,360,5.0,5.0,88,0.00,,SCT,0.00,VWS V14.01,2013-05-10 09:16:00,
2013-05-10 02:21:00,44.4,41.1,30.12,North,351,2.0,7.0,88,0.00,,SCT,0.00,VWS V14.01,2013-05-10 09:21:00,
2013-05-10 02:26:00,44.7,41.4,30.12,North,360,2.0,7.0,88,0.00,,SCT,0.00,VWS V14.01,2013-05-10 09:26:00,
2013-05-10 02:31:00,44.9,41.6,30.12,North,5,3.0,4.0,88,0.00,,SCT,0.00,VWS V14.01,2013-05-10 09:31:00,
2013-05-10 02:36:00,45.0,41.4,30.12,North,5,3.0,4.0,87,0.00,,SCT,0.00,VWS V14.01,2013-05-10 09:36:00,
2013-05-10 02:41:00,45.1,41.5,30.12,North,5,0.0,4.0,87,0.00,,SCT,0.00,VWS V14.01,2013-05-10 09:41:00,
2013-05-10 02:46:00,45.4,42.1,30.12,North,5,0.0,2.0,88,0.00,,SCT,0.00,VWS V14.01,2013-05-10 09:46:00,
2013-05-10 02:51:00,45.7,42.4,30.11,North,5,1.0,2.0,88,0.00,,SCT,0.00,VWS V14.01,2013-05-10 09:51:00,
2013-05-10 02:56:00,45.9,42.3,30.11,North,5,2.0,2.0,87,0.00,,SCT,0.00,VWS V14.01,2013-05-10 09:56:00,
2013-05-10 03:01:00,45.9,42.3,30.11,North,5,0.0,1.0,87,0.00,,SCT,0.00,VWS V14.01,2013-05-10 10:01:00,
2013-05-10 03:06:00,45.7,42.1,30.11,North,5,0.0,2.0,87,0.00,,SCT,0.00,VWS V14.01,2013-05-10 10:06:00,
2013-05-10 03:11:00,45.3,41.4,30.11,North,5,0.0,2.0,86,0.00,,SCT,0.00,VWS V14.01,2013-05-10 10:11:00,
2013-05-10 03:16:00,44.9,41.3,30.11,North,5,0.0,1.0,87,0.00,,SCT,0.00,VWS V14.01,2013-05-10 10:16:00,
2013-05-10 03:21:00,44.7,41.1,30.12,North,5,3.0,3.0,87,0.00,,SCT,0.00,VWS V14.01,2013-05-10 10:21:00,
2013-05-10 03:26:00,44.7,41.1,30.12,North,5,3.0,4.0,87,0.00,,SCT,0.00,VWS V14.01,2013-05-10 10:26:00,
2013-05-10 03:31:00,44.9,41.3,30.12,North,5,4.0,5.0,87,0.00,,SCT,0.00,VWS V14.01,2013-05-10 10:31:00,
2013-05-10 03:36:00,45.1,41.5,30.12,North,5,4.0,5.0,87,0.00,,SCT,0.00,VWS V14.01,2013-05-10 10:36:00,
2013-05-10 03:41:00,45.2,41.6,30.12,North,5,2.0,5.0,87,0.00,,SCT,0.00,VWS V14.01,2013-05-10 10:41:00,
2013-05-10 03:46:00,45.3,41.7,30.12,North,5,0.0,1.0,87,0.00,,SCT,0.00,VWS V14.01,2013-05-10 10:46:00,
2013-05-10 03:51:00,45.3,41.7,30.12,North,5,1.0,2.0,87,0.00,,SCT,0.00,VWS V14.01,2013-05-10 10:51:00,
2013-05-10 03:56:00,45.1,41.5,30.12,North,5,0.0,2.0,87,0.00,,SCT,0.00,VWS V14.01,2013-05-10 10:56:00,
2013-05-10 04:01:00,44.8,40.9,30.12,North,5,0.0,0.0,86,0.00,,SCT,0.00,VWS V14.01,2013-05-10 11:01:00,
2013-05-10 04:06:00,44.6,40.7,30.12,North,5,0.0,0.0,86,0.00,,SCT,0.00,VWS V14.01,2013-05-10 11:06:00,
2013-05-10 04:11:00,44.5,40.6,30.12,North,5,0.0,2.0,86,0.00,,SCT,0.00,VWS V14.01,2013-05-10 11:11:00,
2013-05-10 04:16:00,44.3,40.4,30.12,North,5,0.0,0.0,86,0.00,,SCT,0.00,VWS V14.01,2013-05-10 11:16:00,
2013-05-10 04:21:00,44.2,40.6,30.12,North,5,0.0,0.0,87,0.00,,SCT,0.00,VWS V14.01,2013-05-10 11:21:00,
2013-05-10 04:26:00,44.0,40.4,30.12,North,5,0.0,0.0,87,0.00,,SCT,0.00,VWS V14.01,2013-05-10 11:26:00,
2013-05-10 04:31:00,43.8,40.2,30.12,North,5,0.0,0.0,87,0.00,,SCT,0.00,VWS V14.01,2013-05-10 11:31:00,
2013-05-10 04:36:00,43.7,40.1,30.11,North,5,0.0,0.0,87,0.00,,SCT,0.00,VWS V14.01,2013-05-10 11:36:00,
2013-05-10 04:41:00,43.6,40.0,30.12,North,5,0.0,0.0,87,0.00,,SCT,0.00,VWS V14.01,2013-05-10 11:41:00,
2013-05-10 04:46:00,43.5,39.9,30.12,North,5,0.0,0.0,87,0.00,,SCT,0.00,VWS V14.01,2013-05-10 11:46:00,
2013-05-10 04:51:00,43.4,39.8,30.12,North,5,0.0,0.0,87,0.00,,SCT,0.00,VWS V14.01,2013-05-10 11:51:00,
2013-05-10 04:56:00,43.5,39.9,30.12,North,5,0.0,0.0,87,0.00,,SCT,0.00,VWS V14.01,2013-05-10 11:56:00,
2013-05-10 05:01:00,43.5,39.9,30.12,North,5,0.0,0.0,87,0.00,,SCT,0.00,VWS V14.01,2013-05-10 12:01:00,
2013-05-10 05:06:00,43.4,39.8,30.12,North,5,0.0,0.0,87,0.00,,SCT,0.00,VWS V14.01,2013-05-10 12:06:00,
2013-05-10 05:11:00,43.4,40.1,30.12,North,5,1.0,3.0,88,0.00,,SCT,0.00,VWS V14.01,2013-05-10 12:11:00,
2013-05-10 05:16:00,43.4,40.1,30.12,North,5,0.0,0.0,88,0.00,,SCT,0.00,VWS V14.01,2013-05-10 12:16:00,
2013-05-10 05:21:00,43.4,40.1,30.12,North,5,0.0,0.0,88,0.00,,SCT,0.00,VWS V14.01,2013-05-10 12:21:00,
2013-05-10 05:26:00,43.3,40.0,30.12,North,5,0.0,0.0,88,0.00,,SCT,0.00,VWS V14.01,2013-05-10 12:26:00,
2013-05-10 05:31:00,43.3,40.0,30.12,North,5,0.0,0.0,88,0.00,,SCT,0.00,VWS V14.01,2013-05-10 12:31:00,
2013-05-10 05:36:00,43.2,39.9,30.12,North,5,0.0,0.0,88,0.00,,SCT,0.00,VWS V14.01,2013-05-10 12:36:00,
2013-05-10 05:41:00,43.2,39.9,30.12,North,5,0.0,0.0,88,0.00,,SCT,0.00,VWS V14.01,2013-05-10 12:41:00,
2013-05-10 05:46:00,43.2,39.9,30.13,North,5,0.0,0.0,88,0.00,,SCT,0.00,VWS V14.01,2013-05-10 12:46:00,
2013-05-10 05:51:00,43.2,39.9,30.13,North,5,0.0,0.0,88,0.00,,SCT,0.00,VWS V14.01,2013-05-10 12:51:00,
2013-05-10 05:56:00,43.2,39.9,30.13,North,5,0.0,0.0,88,0.00,,SCT,0.00,VWS V14.01,2013-05-10 12:56:00,
2013-05-10 06:01:00,43.3,40.0,30.13,North,5,0.0,0.0,88,0.00,,SCT,0.00,VWS V14.01,2013-05-10 13:01:00,
2013-05-10 06:06:00,43.3,39.7,30.14,North,5,0.0,0.0,87,0.00,,SCT,0.00,VWS V14.01,2013-05-10 13:06:00,
2013-05-10 06:11:00,43.2,39.6,30.14,North,5,0.0,0.0,87,0.00,,SCT,0.00,VWS V14.01,2013-05-10 13:11:00,
2013-05-10 06:16:00,43.2,39.9,30.14,North,5,0.0,0.0,88,0.00,,SCT,0.00,VWS V14.01,2013-05-10 13:16:00,
2013-05-10 06:21:00,43.2,39.9,30.14,North,5,0.0,0.0,88,0.00,,SCT,0.00,VWS V14.01,2013-05-10 13:21:00,
2013-05-10 06:26:00,43.4,40.1,30.14,North,5,0.0,0.0,88,0.00,,SCT,0.00,VWS V14.01,2013-05-10 13:26:00,
2013-05-10 06:31:00,43.6,40.3,30.15,North,5,0.0,0.0,88,0.00,,SCT,0.00,VWS V14.01,2013-05-10 13:31:00,
2013-05-10 06:36:00,43.9,40.6,30.15,North,5,0.0,0.0,88,0.00,,SCT,0.00,VWS V14.01,2013-05-10 13:36:00,
2013-05-10 06:41:00,44.3,41.0,30.15,North,5,0.0,0.0,88,0.00,,SCT,0.00,VWS V14.01,2013-05-10 13:41:00,
2013-05-10 06:46:00,44.7,41.4,30.15,North,5,0.0,0.0,88,0.00,,SCT,0.00,VWS V14.01,2013-05-10 13:46:00,
2013-05-10 06:51:00,45.2,41.9,30.15,North,5,0.0,0.0,88,0.00,,SCT,0.00,VWS V14.01,2013-05-10 13:51:00,
2013-05-10 06:56:00,45.8,42.2,30.15,North,5,0.0,0.0,87,0.00,,SCT,0.00,VWS V14.01,2013-05-10 13:56:00,
2013-05-10 07:01:00,46.2,42.5,30.15,North,5,0.0,0.0,87,0.00,,SCT,0.00,VWS V14.01,2013-05-10 14:01:00,
2013-05-10 07:06:00,46.8,43.1,30.15,North,5,0.0,0.0,87,0.00,,SCT,0.00,VWS V14.01,2013-05-10 14:06:00,
2013-05-10 07:11:00,47.6,43.9,30.15,North,5,0.0,3.0,87,0.00,,SCT,0.00,VWS V14.01,2013-05-10 14:11:00,
2013-05-10 07:16:00,48.3,44.9,30.16,North,5,1.0,2.0,88,0.00,,SCT,0.00,VWS V14.01,2013-05-10 14:16:00,
2013-05-10 07:21:00,48.9,45.2,30.16,North,5,0.0,2.0,87,0.00,,SCT,0.00,VWS V14.01,2013-05-10 14:21:00,
2013-05-10 07:26:00,49.6,45.9,30.16,North,5,2.0,2.0,87,0.00,,SCT,0.00,VWS V14.01,2013-05-10 14:26:00,
2013-05-10 07:31:00,50.4,46.4,30.16,North,5,0.0,1.0,86,0.00,,SCT,0.00,VWS V14.01,2013-05-10 14:31:00,
2013-05-10 07:36:00,51.4,46.4,30.16,North,5,0.0,2.0,83,0.00,,SCT,0.00,VWS V14.01,2013-05-10 14:36:00,
2013-05-10 07:41:00,52.4,46.8,30.16,NNE,30,0.0,3.0,81,0.00,,SCT,0.00,VWS V14.01,2013-05-10 14:41:00,
2013-05-10 07:46:00,53.2,46.2,30.16,NNE,30,2.0,2.0,77,0.00,,SCT,0.00,VWS V14.01,2013-05-10 14:46:00,
2013-05-10 07:51:00,54.1,46.4,30.16,ENE,67,3.0,4.0,75,0.00,,SCT,0.00,VWS V14.01,2013-05-10 14:51:00,
2013-05-10 07:56:00,55.0,45.0,30.16,ENE,69,0.0,4.0,69,0.00,,SCT,0.00,VWS V14.01,2013-05-10 14:56:00,
2013-05-10 08:01:00,55.9,43.9,30.16,ENE,67,2.0,4.0,64,0.00,,SCT,0.00,VWS V14.01,2013-05-10 15:01:00,
2013-05-10 08:06:00,56.9,46.1,30.16,ENE,64,1.0,6.0,67,0.00,,SCT,0.00,VWS V14.01,2013-05-10 15:06:00,
2013-05-10 08:11:00,57.6,45.1,30.17,ENE,65,2.0,6.0,63,0.00,,SCT,0.00,VWS V14.01,2013-05-10 15:11:00,
2013-05-10 08:16:00,58.1,44.3,30.17,ENE,74,2.0,3.0,60,0.00,,SCT,0.00,VWS V14.01,2013-05-10 15:16:00,
2013-05-10 08:21:00,58.6,44.8,30.17,East,99,2.0,6.0,60,0.00,,SCT,0.00,VWS V14.01,2013-05-10 15:21:00,
2013-05-10 08:26:00,59.0,45.6,30.16,East,101,4.0,6.0,61,0.00,,SCT,0.00,VWS V14.01,2013-05-10 15:26:00,
2013-05-10 08:31:00,59.6,44.4,30.17,ENE,71,6.0,6.0,57,0.00,,SCT,0.00,VWS V14.01,2013-05-10 15:31:00,
2013-05-10 08:36:00,60.0,42.8,30.17,East,80,1.0,6.0,53,0.00,,SCT,0.00,VWS V14.01,2013-05-10 15:36:00,
2013-05-10 08:41:00,60.4,43.7,30.17,NE,36,5.0,6.0,54,0.00,,SCT,0.00,VWS V14.01,2013-05-10 15:41:00,
2013-05-10 08:46:00,60.7,43.0,30.17,ENE,76,6.0,8.0,52,0.00,,SCT,0.00,VWS V14.01,2013-05-10 15:46:00,
2013-05-10 08:51:00,61.1,42.8,30.17,ENE,67,4.0,11.0,51,0.00,,SCT,0.00,VWS V14.01,2013-05-10 15:51:00,
2013-05-10 08:56:00,61.5,42.7,30.17,East,89,6.0,11.0,50,0.00,,SCT,0.00,VWS V14.01,2013-05-10 15:56:00,
2013-05-10 09:01:00,61.9,43.6,30.17,ENE,65,6.0,8.0,51,0.00,,SCT,0.00,VWS V14.01,2013-05-10 16:01:00,
2013-05-10 09:06:00,62.2,42.3,30.17,NE,55,6.0,10.0,48,0.00,,SCT,0.00,VWS V14.01,2013-05-10 16:06:00,
2013-05-10 09:11:00,62.5,43.1,30.17,NE,56,6.0,12.0,49,0.00,,SCT,0.00,VWS V14.01,2013-05-10 16:11:00,
2013-05-10 09:16:00,62.7,43.3,30.17,NE,35,3.0,9.0,49,0.00,,SCT,0.00,VWS V14.01,2013-05-10 16:16:00,
2013-05-10 09:20:00,62.9,42.9,30.17,ENE,57,8.0,15.0,48,0.00,,SCT,0.00,VWS V14.01,2013-05-10 16:20:00,
2013-05-10 09:25:00,63.1,42.0,30.17,NE,54,6.0,15.0,46,0.00,,SCT,0.00,VWS V14.01,2013-05-10 16:25:00,
2013-05-10 09:31:00,63.4,42.3,30.17,NE,51,7.0,12.0,46,0.00,,SCT,0.00,VWS V14.01,2013-05-10 16:31:00,
2013-05-10 09:36:00,63.7,43.7,30.17,ENE,62,10.0,12.0,48,0.00,,SCT,0.00,VWS V14.01,2013-05-10 16:36:00,
2013-05-10 09:41:00,64.0,44.5,30.17,East,91,7.0,16.0,49,0.00,,SCT,0.00,VWS V14.01,2013-05-10 16:41:00,
2013-05-10 09:46:00,64.2,42.4,30.17,East,90,11.0,16.0,45,0.00,,SCT,0.00,VWS V14.01,2013-05-10 16:46:00,
2013-05-10 09:51:00,64.5,41.5,30.17,East,85,6.0,16.0,43,0.00,,SCT,0.00,VWS V14.01,2013-05-10 16:51:00,
2013-05-10 09:56:00,64.8,45.7,30.17,ENE,67,3.0,16.0,50,0.00,,SCT,0.00,VWS V14.01,2013-05-10 16:56:00,
2013-05-10 10:01:00,65.3,42.2,30.17,North,5,9.0,10.0,43,0.00,,SCT,0.00,VWS V14.01,2013-05-10 17:01:00,
2013-05-10 10:06:00,65.7,42.0,30.17,ENE,59,8.0,14.0,42,0.00,,SCT,0.00,VWS V14.01,2013-05-10 17:06:00,
2013-05-10 10:11:00,66.1,43.0,30.17,NE,38,11.0,14.0,43,0.00,,SCT,0.00,VWS V14.01,2013-05-10 17:11:00,
2013-05-10 10:16:00,66.3,41.3,30.17,East,84,12.0,12.0,40,0.00,,SCT,0.00,VWS V14.01,2013-05-10 17:16:00,
2013-05-10 10:21:00,66.6,41.5,30.17,NE,48,5.0,13.0,40,0.00,,SCT,0.00,VWS V14.01,2013-05-10 17:21:00,
2013-05-10 10:26:00,66.8,43.0,30.17,NE,50,6.0,17.0,42,0.00,,SCT,0.00,VWS V14.01,2013-05-10 17:26:00,
2013-05-10 10:31:00,67.0,42.5,30.17,NNE,31,8.0,9.0,41,0.00,,SCT,0.00,VWS V14.01,2013-05-10 17:31:00,
2013-05-10 10:36:00,67.2,42.1,30.18,NE,52,5.0,14.0,40,0.00,,SCT,0.00,VWS V14.01,2013-05-10 17:36:00,
2013-05-10 10:41:00,67.6,41.8,30.18,ENE,61,6.0,14.0,39,0.00,,SCT,0.00,VWS V14.01,2013-05-10 17:41:00,
2013-05-10 10:46:00,68.0,44.1,30.18,ENE,77,8.0,13.0,42,0.00,,SCT,0.00,VWS V14.01,2013-05-10 17:46:00,
2013-05-10 10:51:00,68.6,41.3,30.17,NE,41,3.0,13.0,37,0.00,,SCT,0.00,VWS V14.01,2013-05-10 17:51:00,
2013-05-10 10:56:00,69.0,42.4,30.18,NE,55,5.0,14.0,38,0.00,,SCT,0.00,VWS V14.01,2013-05-10 17:56:00,
2013-05-10 11:01:00,69.3,42.6,30.18,NE,42,8.0,11.0,38,0.00,,SCT,0.00,VWS V14.01,2013-05-10 18:01:00,
2013-05-10 11:06:00,69.5,45.4,30.18,East,84,5.0,13.0,42,0.00,,SCT,0.00,VWS V14.01,2013-05-10 18:06:00,
2013-05-10 11:11:00,69.9,41.8,30.18,NNE,26,3.0,17.0,36,0.00,,SCT,0.00,VWS V14.01,2013-05-10 18:11:00,
2013-05-10 11:16:00,69.9,41.0,30.18,ENE,65,7.0,7.0,35,0.00,,SCT,0.00,VWS V14.01,2013-05-10 18:16:00,
2013-05-10 11:21:00,69.7,43.7,30.18,ENE,66,6.0,14.0,39,0.00,,SCT,0.00,VWS V14.01,2013-05-10 18:21:00,
2013-05-10 11:26:00,69.9,41.0,30.18,ENE,67,5.0,14.0,35,0.00,,SCT,0.00,VWS V14.01,2013-05-10 18:26:00,
2013-05-10 11:31:00,70.0,42.6,30.17,NE,35,4.0,8.0,37,0.00,,SCT,0.00,VWS V14.01,2013-05-10 18:31:00,
2013-05-10 11:36:00,70.0,40.4,30.17,East,79,6.0,14.0,34,0.00,,SCT,0.00,VWS V14.01,2013-05-10 18:36:00,
2013-05-10 11:41:00,69.7,40.8,30.17,NNE,33,6.0,16.0,35,0.00,,SCT,0.00,VWS V14.01,2013-05-10 18:41:00,
2013-05-10 11:46:00,70.1,41.2,30.17,North,5,12.0,14.0,35,0.00,,SCT,0.00,VWS V14.01,2013-05-10 18:46:00,
2013-05-10 11:50:00,70.1,39.7,30.18,NE,39,9.0,14.0,33,0.00,,SCT,0.00,VWS V14.01,2013-05-10 18:50:00,
2013-05-10 11:55:00,69.9,40.3,30.18,NE,53,8.0,14.0,34,0.00,,SCT,0.00,VWS V14.01,2013-05-10 18:55:00,
2013-05-10 12:00:00,70.1,41.9,30.17,NNW,329,1.0,5.0,36,0.00,,SCT,0.00,VWS V14.01,2013-05-10 19:00:00,
2013-05-10 12:05:00,70.4,39.2,30.18,NNE,27,1.0,14.0,32,0.00,,SCT,0.00,VWS V14.01,2013-05-10 19:05:00,
2013-05-10 12:10:00,70.6,40.9,30.17,ENE,65,4.0,14.0,34,0.00,,SCT,0.00,VWS V14.01,2013-05-10 19:10:00,
2013-05-10 12:15:00,71.2,41.4,30.16,NNE,25,10.0,12.0,34,0.00,,SCT,0.00,VWS V14.01,2013-05-10 19:15:00,
2013-05-10 12:20:00,71.7,40.3,30.17,ENE,73,5.0,12.0,32,0.00,,SCT,0.00,VWS V14.01,2013-05-10 19:20:00,
2013-05-10 12:25:00,72.1,39.8,30.17,WNW,284,2.0,12.0,31,0.00,,SCT,0.00,VWS V14.01,2013-05-10 19:25:00,
2013-05-10 12:30:00,72.0,40.6,30.17,NNE,30,3.0,10.0,32,0.00,,SCT,0.00,VWS V14.01,2013-05-10 19:30:00,
2013-05-10 12:35:00,72.0,41.3,30.17,NNE,13,5.0,11.0,33,0.00,,SCT,0.00,VWS V14.01,2013-05-10 19:35:00,
2013-05-10 12:40:00,72.0,38.9,30.17,NE,56,7.0,13.0,30,0.00,,SCT,0.00,VWS V14.01,2013-05-10 19:40:00,
2013-05-10 12:45:00,72.1,39.8,30.17,ENE,74,11.0,14.0,31,0.00,,SCT,0.00,VWS V14.01,2013-05-10 19:45:00,
2013-05-10 12:50:00,72.4,40.1,30.17,East,90,7.0,14.0,31,0.00,,SCT,0.00,VWS V14.01,2013-05-10 19:50:00,
2013-05-10 12:55:00,72.7,37.8,30.17,East,82,3.0,14.0,28,0.00,,SCT,0.00,VWS V14.01,2013-05-10 19:55:00,
2013-05-10 13:00:00,72.6,38.5,30.17,ENE,71,3.0,6.0,29,0.00,,SCT,0.00,VWS V14.01,2013-05-10 20:00:00,
2013-05-10 13:05:00,72.6,40.3,30.17,ENE,69,8.0,19.0,31,0.00,,SCT,0.00,VWS V14.01,2013-05-10 20:05:00,
2013-05-10 13:10:00,72.6,39.4,30.16,SE,142,5.0,19.0,30,0.00,,SCT,0.00,VWS V14.01,2013-05-10 20:10:00,
2013-05-10 13:15:00,72.9,42.9,30.16,East,86,2.0,7.0,34,0.00,,SCT,0.00,VWS V14.01,2013-05-10 20:15:00,
2013-05-10 13:20:00,73.3,43.3,30.16,NNE,25,5.0,11.0,34,0.00,,SCT,0.00,VWS V14.01,2013-05-10 20:20:00,
2013-05-10 13:25:00,73.5,47.0,30.16,NE,55,0.0,11.0,39,0.00,,SCT,0.00,VWS V14.01,2013-05-10 20:25:00,
2013-05-10 13:30:00,73.3,50.1,30.16,West,261,3.0,3.0,44,0.00,,SCT,0.00,VWS V14.01,2013-05-10 20:30:00,
2013-05-10 13:35:00,72.4,50.5,30.16,SW,236,5.0,10.0,46,0.00,,SCT,0.00,VWS V14.01,2013-05-10 20:35:00,
2013-05-10 13:40:00,71.9,51.2,30.16,NW,304,4.0,10.0,48,0.00,,SCT,0.00,VWS V14.01,2013-05-10 20:40:00,
2013-05-10 13:45:00,71.7,49.8,30.15,WSW,243,2.0,10.0,46,0.00,,SCT,0.00,VWS V14.01,2013-05-10 20:45:00,
2013-05-10 13:50:00,71.2,50.0,30.15,West,267,0.0,11.0,47,0.00,,SCT,0.00,VWS V14.01,2013-05-10 20:50:00,
2013-05-10 13:55:00,70.9,50.2,30.15,WNW,300,4.0,11.0,48,0.00,,SCT,0.00,VWS V14.01,2013-05-10 20:55:00,
2013-05-10 14:00:00,70.6,50.0,30.14,West,259,3.0,5.0,48,0.00,,SCT,0.00,VWS V14.01,2013-05-10 21:00:00,
2013-05-10 14:05:00,70.1,50.6,30.15,West,261,5.0,9.0,50,0.00,,SCT,0.00,VWS V14.01,2013-05-10 21:05:00,
2013-05-10 14:10:00,69.8,49.2,30.14,West,271,4.0,11.0,48,0.00,,SCT,0.00,VWS V14.01,2013-05-10 21:10:00,
2013-05-10 14:15:00,69.4,51.0,30.14,West,275,5.0,8.0,52,0.00,,SCT,0.00,VWS V14.01,2013-05-10 21:15:00,
2013-05-10 14:20:00,70.0,50.0,30.14,West,267,11.0,13.0,49,0.00,,SCT,0.00,VWS V14.01,2013-05-10 21:20:00,
2013-05-10 14:25:00,70.5,49.9,30.14,WSW,250,6.0,13.0,48,0.00,,SCT,0.00,VWS V14.01,2013-05-10 21:25:00,
2013-05-10 14:30:00,70.9,49.1,30.14,WNW,282,5.0,6.0,46,0.00,,SCT,0.00,VWS V14.01,2013-05-10 21:30:00,
2013-05-10 14:35:00,71.0,50.3,30.14,WSW,248,5.0,12.0,48,0.00,,SCT,0.00,VWS V14.01,2013-05-10 21:35:00,
2013-05-10 14:40:00,71.3,52.3,30.14,WSW,244,6.0,15.0,51,0.00,,SCT,0.00,VWS V14.01,2013-05-10 21:40:00,
2013-05-10 14:45:00,72.0,51.8,30.13,WSW,257,4.0,11.0,49,0.00,,SCT,0.00,VWS V14.01,2013-05-10 21:45:00,
2013-05-10 14:50:00,71.9,51.2,30.13,West,272,12.0,18.0,48,0.00,,SCT,0.00,VWS V14.01,2013-05-10 21:50:00,
2013-05-10 14:55:00,71.3,50.6,30.13,WNW,285,11.0,18.0,48,0.00,,SCT,0.00,VWS V14.01,2013-05-10 21:55:00,
2013-05-10 14:58:00,71.0,50.9,30.13,West,281,5.0,18.0,49,0.00,,SCT,0.00,VWS V14.01,2013-05-10 21:58:00,
2013-05-10 15:03:00,71.0,51.5,30.13,West,262,6.0,11.0,50,0.00,,SCT,0.00,VWS V14.01,2013-05-10 22:03:00,
2013-05-10 15:08:00,71.2,51.1,30.13,West,259,5.0,14.0,49,0.00,,SCT,0.00,VWS V14.01,2013-05-10 22:08:00,
2013-05-10 15:13:00,70.7,51.7,30.13,West,260,14.0,14.0,51,0.00,,SCT,0.00,VWS V14.01,2013-05-10 22:13:00,
2013-05-10 15:18:00,70.5,50.4,30.12,WSW,240,10.0,12.0,49,0.00,,SCT,0.00,VWS V14.01,2013-05-10 22:18:00,
2013-05-10 15:23:00,70.6,50.5,30.12,West,261,7.0,12.0,49,0.00,,SCT,0.00,VWS V14.01,2013-05-10 22:23:00,
2013-05-10 15:28:00,71.0,50.9,30.12,West,274,8.0,14.0,49,0.00,,SCT,0.00,VWS V14.01,2013-05-10 22:28:00,
2013-05-10 15:33:00,71.8,51.6,30.12,SW,215,7.0,14.0,49,0.00,,SCT,0.00,VWS V14.01,2013-05-10 22:33:00,
2013-05-10 15:38:00,72.4,51.0,30.12,SW,235,13.0,17.0,47,0.00,,SCT,0.00,VWS V14.01,2013-05-10 22:38:00,
2013-05-10 15:43:00,72.5,50.6,30.12,SW,215,8.0,17.0,46,0.00,,SCT,0.00,VWS V14.01,2013-05-10 22:43:00,
2013-05-10 15:48:00,72.6,51.2,30.12,WSW,243,6.0,13.0,47,0.00,,SCT,0.00,VWS V14.01,2013-05-10 22:48:00,
2013-05-10 15:53:00,72.7,51.9,30.11,WSW,257,11.0,18.0,48,0.00,,SCT,0.00,VWS V14.01,2013-05-10 22:53:00,
2013-05-10 15:58:00,72.9,52.1,30.11,WSW,242,5.0,18.0,48,0.00,,SCT,0.00,VWS V14.01,2013-05-10 22:58:00,
2013-05-10 16:03:00,73.0,51.6,30.11,SSW,208,12.0,14.0,47,0.00,,SCT,0.00,VWS V14.01,2013-05-10 23:03:00,
2013-05-10 16:08:00,73.0,52.7,30.11,SW,230,16.0,16.0,49,0.00,,SCT,0.00,VWS V14.01,2013-05-10 23:08:00,
2013-05-10 16:13:00,72.9,52.1,30.11,WSW,241,19.0,20.0,48,0.00,,SCT,0.00,VWS V14.01,2013-05-10 23:13:00,
2013-05-10 16:18:00,72.6,51.2,30.11,West,265,7.0,15.0,47,0.00,,SCT,0.00,VWS V14.01,2013-05-10 23:18:00,
2013-05-10 16:23:00,71.5,50.8,30.11,SW,227,8.0,15.0,48,0.00,,SCT,0.00,VWS V14.01,2013-05-10 23:23:00,
2013-05-10 16:28:00,70.8,51.3,30.11,WSW,238,10.0,15.0,50,0.00,,SCT,0.00,VWS V14.01,2013-05-10 23:28:00,
2013-05-10 16:33:00,70.6,50.5,30.11,West,264,6.0,14.0,49,0.00,,SCT,0.00,VWS V14.01,2013-05-10 23:33:00,
2013-05-10 16:38:00,70.7,51.2,30.11,WSW,241,5.0,14.0,50,0.00,,SCT,0.00,VWS V14.01,2013-05-10 23:38:00,
2013-05-10 16:43:00,70.7,50.1,30.11,SW,218,9.0,15.0,48,0.00,,SCT,0.00,VWS V14.01,2013-05-10 23:43:00,
2013-05-10 16:48:00,70.5,50.4,30.11,West,259,6.0,14.0,49,0.00,,SCT,0.00,VWS V14.01,2013-05-10 23:48:00,
2013-05-10 16:53:00,70.7,49.5,30.11,WSW,254,8.0,15.0,47,0.00,,SCT,0.00,VWS V14.01,2013-05-10 23:53:00,
2013-05-10 16:58:00,70.7,48.3,30.11,SW,232,8.0,17.0,45,0.00,,SCT,0.00,VWS V14.01,2013-05-10 23:58:00,
2013-05-10 17:03:00,70.6,49.4,30.11,WSW,242,13.0,13.0,47,0.00,,SCT,0.00,VWS V14.01,2013-05-11 00:03:00,
2013-05-10 17:08:00,70.4,49.2,30.11,West,265,12.0,17.0,47,0.00,,SCT,0.00,VWS V14.01,2013-05-11 00:08:00,
2013-05-10 17:13:00,69.9,48.8,30.11,SW,234,12.0,21.0,47,0.00,,SCT,0.00,VWS V14.01,2013-05-11 00:13:00,
2013-05-10 17:18:00,69.4,48.3,30.11,WSW,248,7.0,13.0,47,0.00,,SCT,0.00,VWS V14.01,2013-05-11 00:18:00,
2013-05-10 17:23:00,69.2,49.2,30.11,West,269,4.0,15.0,49,0.00,,SCT,0.00,VWS V14.01,2013-05-11 00:23:00,
2013-05-10 17:28:00,69.1,50.2,30.11,WSW,244,11.0,15.0,51,0.00,,SCT,0.00,VWS V14.01,2013-05-11 00:28:00,
2013-05-10 17:33:00,68.8,48.9,30.11,WSW,253,11.0,19.0,49,0.00,,SCT,0.00,VWS V14.01,2013-05-11 00:33:00,
2013-05-10 17:38:00,68.3,47.9,30.11,WSW,242,14.0,19.0,48,0.00,,SCT,0.00,VWS V14.01,2013-05-11 00:38:00,
2013-05-10 17:43:00,67.8,47.4,30.11,WSW,244,19.0,19.0,48,0.00,,SCT,0.00,VWS V14.01,2013-05-11 00:43:00,
2013-05-10 17:48:00,67.3,48.6,30.11,WSW,249,10.0,15.0,51,0.00,,SCT,0.00,VWS V14.01,2013-05-11 00:48:00,
2013-05-10 17:53:00,67.0,47.2,30.11,WSW,253,10.0,17.0,49,0.00,,SCT,0.00,VWS V14.01,2013-05-11 00:53:00,
2013-05-10 17:58:00,66.6,47.4,30.11,WSW,242,8.0,17.0,50,0.00,,SCT,0.00,VWS V14.01,2013-05-11 00:58:00,
2013-05-10 18:03:00,66.3,48.2,30.11,WSW,258,7.0,15.0,52,0.00,,SCT,0.00,VWS V14.01,2013-05-11 01:03:00,
2013-05-10 18:08:00,65.9,47.3,30.11,SW,227,12.0,15.0,51,0.00,,SCT,0.00,VWS V14.01,2013-05-11 01:08:00,
2013-05-10 18:13:00,65.6,48.0,30.11,WNW,286,7.0,15.0,53,0.00,,SCT,0.00,VWS V14.01,2013-05-11 01:13:00,
2013-05-10 18:18:00,65.2,47.7,30.11,WSW,253,6.0,15.0,53,0.00,,SCT,0.00,VWS V14.01,2013-05-11 01:18:00,
2013-05-10 18:23:00,64.8,48.3,30.11,WNW,284,9.0,16.0,55,0.00,,SCT,0.00,VWS V14.01,2013-05-11 01:23:00,
2013-05-10 18:28:00,64.6,49.0,30.11,WSW,256,7.0,16.0,57,0.00,,SCT,0.00,VWS V14.01,2013-05-11 01:28:00,
2013-05-10 18:33:00,64.5,49.0,30.11,WSW,242,8.0,11.0,57,0.00,,SCT,0.00,VWS V14.01,2013-05-11 01:33:00,
2013-05-10 18:38:00,64.3,49.2,30.11,West,267,8.0,13.0,58,0.00,,SCT,0.00,VWS V14.01,2013-05-11 01:38:00,
2013-05-10 18:43:00,64.2,49.6,30.11,SW,236,7.0,13.0,59,0.00,,SCT,0.00,VWS V14.01,2013-05-11 01:43:00,
2013-05-10 18:48:00,64.1,50.4,30.11,SW,231,8.0,19.0,61,0.00,,SCT,0.00,VWS V14.01,2013-05-11 01:48:00,
2013-05-10 18:53:00,63.8,49.2,30.11,SW,219,8.0,19.0,59,0.00,,SCT,0.00,VWS V14.01,2013-05-11 01:53:00,
2013-05-10 18:58:00,63.4,47.5,30.12,WSW,246,7.0,19.0,56,0.00,,SCT,0.00,VWS V14.01,2013-05-11 01:58:00,
2013-05-10 19:03:00,63.1,47.2,30.11,SW,235,6.0,14.0,56,0.00,,SCT,0.00,VWS V14.01,2013-05-11 02:03:00,
2013-05-10 19:08:00,62.8,47.4,30.12,WSW,242,10.0,14.0,57,0.00,,SCT,0.00,VWS V14.01,2013-05-11 02:08:00,
2013-05-10 19:13:00,62.5,48.0,30.12,WSW,256,10.0,14.0,59,0.00,,SCT,0.00,VWS V14.01,2013-05-11 02:13:00,
2013-05-10 19:18:00,62.2,47.7,30.12,West,266,6.0,10.0,59,0.00,,SCT,0.00,VWS V14.01,2013-05-11 02:18:00,
2013-05-10 19:23:00,61.8,47.3,30.12,WSW,257,8.0,10.0,59,0.00,,SCT,0.00,VWS V14.01,2013-05-11 02:23:00,
2013-05-10 19:28:00,61.4,47.8,30.12,WSW,244,6.0,12.0,61,0.00,,SCT,0.00,VWS V14.01,2013-05-11 02:28:00,
2013-05-10 19:33:00,60.9,47.4,30.12,WSW,246,7.0,11.0,61,0.00,,SCT,0.00,VWS V14.01,2013-05-11 02:33:00,
2013-05-10 19:38:00,60.5,47.4,30.12,West,262,5.0,11.0,62,0.00,,SCT,0.00,VWS V14.01,2013-05-11 02:38:00,
2013-05-10 19:43:00,60.1,47.5,30.12,SW,223,7.0,11.0,63,0.00,,SCT,0.00,VWS V14.01,2013-05-11 02:43:00,
2013-05-10 19:48:00,59.7,47.5,30.13,West,260,4.0,8.0,64,0.00,,SCT,0.00,VWS V14.01,2013-05-11 02:48:00,
2013-05-10 19:53:00,59.3,46.7,30.13,WSW,253,5.0,8.0,63,0.00,,SCT,0.00,VWS V14.01,2013-05-11 02:53:00,
2013-05-10 19:58:00,58.9,46.8,30.13,WSW,253,3.0,8.0,64,0.00,,SCT,0.00,VWS V14.01,2013-05-11 02:58:00,
2013-05-10 20:03:00,58.6,46.9,30.13,WSW,248,5.0,6.0,65,0.00,,SCT,0.00,VWS V14.01,2013-05-11 03:03:00,
2013-05-10 20:08:00,58.3,46.6,30.13,WSW,252,6.0,11.0,65,0.00,,SCT,0.00,VWS V14.01,2013-05-11 03:08:00,
2013-05-10 20:13:00,58.0,47.5,30.13,West,264,3.0,11.0,68,0.00,,SCT,0.00,VWS V14.01,2013-05-11 03:13:00,
2013-05-10 20:18:00,57.7,46.8,30.14,West,276,5.0,8.0,67,0.00,,SCT,0.00,VWS V14.01,2013-05-11 03:18:00,
2013-05-10 20:23:00,57.4,46.9,30.14,WSW,250,6.0,8.0,68,0.00,,SCT,0.00,VWS V14.01,2013-05-11 03:23:00,
2013-05-10 20:28:00,57.1,46.7,30.14,West,264,5.0,10.0,68,0.00,,SCT,0.00,VWS V14.01,2013-05-11 03:28:00,
2013-05-10 20:33:00,56.9,46.8,30.14,WSW,250,4.0,8.0,69,0.00,,SCT,0.00,VWS V14.01,2013-05-11 03:33:00,
2013-05-10 20:38:00,56.6,46.2,30.14,WSW,254,7.0,9.0,68,0.00,,SCT,0.00,VWS V14.01,2013-05-11 03:38:00,
2013-05-10 20:43:00,56.4,46.8,30.14,West,261,4.0,9.0,70,0.00,,SCT,0.00,VWS V14.01,2013-05-11 03:43:00,
2013-05-10 20:48:00,56.1,46.5,30.15,West,277,2.0,7.0,70,0.00,,SCT,0.00,VWS V14.01,2013-05-11 03:48:00,
2013-05-10 20:53:00,56.0,46.0,30.15,WSW,240,6.0,7.0,69,0.00,,SCT,0.00,VWS V14.01,2013-05-11 03:53:00,
2013-05-10 20:58:00,55.7,46.1,30.15,WSW,247,5.0,8.0,70,0.00,,SCT,0.00,VWS V14.01,2013-05-11 03:58:00,
2013-05-10 21:01:00,55.6,45.6,30.15,WSW,255,4.0,7.0,69,0.00,,SCT,0.00,VWS V14.01,2013-05-11 04:01:00,
2013-05-10 21:02:00,55.5,45.1,30.15,West,269,4.0,7.0,68,0.00,,SCT,0.00,VWS V14.01,2013-05-11 04:02:00,
2013-05-10 21:07:00,55.3,45.3,30.15,WSW,239,7.0,8.0,69,0.00,,SCT,0.00,VWS V14.01,2013-05-11 04:07:00,
2013-05-10 21:12:00,55.1,45.1,30.15,WSW,247,4.0,8.0,69,0.00,,SCT,0.00,VWS V14.01,2013-05-11 04:12:00,
2013-05-10 21:17:00,54.8,44.1,30.15,WSW,257,5.0,6.0,67,0.00,,SCT,0.00,VWS V14.01,2013-05-11 04:17:00,
2013-05-10 21:22:00,54.7,43.6,30.15,WSW,244,5.0,11.0,66,0.00,,SCT,0.00,VWS V14.01,2013-05-11 04:22:00,
2013-05-10 21:27:00,54.9,43.4,30.16,West,262,11.0,12.0,65,0.00,,SCT,0.00,VWS V14.01,2013-05-11 04:27:00,
2013-05-10 21:32:00,55.0,42.2,30.16,West,261,7.0,11.0,62,0.00,,SCT,0.00,VWS V14.01,2013-05-11 04:32:00,
2013-05-10 21:37:00,55.3,42.5,30.16,WSW,253,6.0,12.0,62,0.00,,SCT,0.00,VWS V14.01,2013-05-11 04:37:00,
2013-05-10 21:42:00,55.4,42.6,30.16,WSW,237,10.0,13.0,62,0.00,,SCT,0.00,VWS V14.01,2013-05-11 04:42:00,
2013-05-10 21:47:00,55.5,42.3,30.16,WSW,252,5.0,10.0,61,0.00,,SCT,0.00,VWS V14.01,2013-05-11 04:47:00,
2013-05-10 21:52:00,55.6,42.0,30.16,WSW,241,11.0,13.0,60,0.00,,SCT,0.00,VWS V14.01,2013-05-11 04:52:00,
2013-05-10 21:57:00,55.6,42.4,30.17,West,278,6.0,13.0,61,0.00,,SCT,0.00,VWS V14.01,2013-05-11 04:57:00,
2013-05-10 22:02:00,55.8,41.7,30.16,West,274,6.0,12.0,59,0.00,,SCT,0.00,VWS V14.01,2013-05-11 05:02:00,
2013-05-10 22:07:00,55.9,42.7,30.16,WSW,254,4.0,12.0,61,0.00,,SCT,0.00,VWS V14.01,2013-05-11 05:07:00,
2013-05-10 22:12:00,55.9,42.7,30.16,WSW,242,6.0,12.0,61,0.00,,SCT,0.00,VWS V14.01,2013-05-11 05:12:00,
2013-05-10 22:17:00,55.7,42.5,30.16,West,268,3.0,5.0,61,0.00,,SCT,0.00,VWS V14.01,2013-05-11 05:17:00,
2013-05-10 22:22:00,55.5,43.1,30.16,WNW,285,2.0,6.0,63,0.00,,SCT,0.00,VWS V14.01,2013-05-11 05:22:00,
2013-05-10 22:27:00,55.3,42.5,30.16,WNW,283,5.0,7.0,62,0.00,,SCT,0.00,VWS V14.01,2013-05-11 05:27:00,
2013-05-10 22:32:00,54.9,42.1,30.17,WSW,250,4.0,6.0,62,0.00,,SCT,0.00,VWS V14.01,2013-05-11 05:32:00,
2013-05-10 22:37:00,54.4,42.1,30.17,West,275,2.0,7.0,63,0.00,,SCT,0.00,VWS V14.01,2013-05-11 05:37:00,
2013-05-10 22:42:00,53.9,42.8,30.16,West,279,5.0,9.0,66,0.00,,SCT,0.00,VWS V14.01,2013-05-11 05:42:00,
2013-05-10 22:47:00,53.6,42.5,30.17,West,281,4.0,7.0,66,0.00,,SCT,0.00,VWS V14.01,2013-05-11 05:47:00,
2013-05-10 22:52:00,53.4,43.1,30.17,West,279,4.0,7.0,68,0.00,,SCT,0.00,VWS V14.01,2013-05-11 05:52:00,
2013-05-10 22:57:00,53.2,42.9,30.17,West,275,2.0,7.0,68,0.00,,SCT,0.00,VWS V14.01,2013-05-11 05:57:00,
2013-05-10 23:02:00,53.1,43.2,30.17,WSW,250,4.0,6.0,69,0.00,,SCT,0.00,VWS V14.01,2013-05-11 06:02:00,
2013-05-10 23:07:00,52.8,43.3,30.17,WSW,250,5.0,6.0,70,0.00,,SCT,0.00,VWS V14.01,2013-05-11 06:07:00,
2013-05-10 23:12:00,52.7,43.6,30.17,WSW,242,3.0,6.0,71,0.00,,SCT,0.00,VWS V14.01,2013-05-11 06:12:00,
2013-05-10 23:17:00,52.5,43.4,30.17,WSW,241,2.0,4.0,71,0.00,,SCT,0.00,VWS V14.01,2013-05-11 06:17:00,
2013-05-10 23:22:00,52.5,44.1,30.17,WSW,241,3.0,5.0,73,0.00,,SCT,0.00,VWS V14.01,2013-05-11 06:22:00,
2013-05-10 23:27:00,52.3,43.5,30.17,WSW,242,2.0,5.0,72,0.00,,SCT,0.00,VWS V14.01,2013-05-11 06:27:00,
2013-05-10 23:32:00,51.9,43.2,30.17,WSW,242,0.0,3.0,72,0.00,,SCT,0.00,VWS V14.01,2013-05-11 06:32:00,
2013-05-10 23:37:00,51.5,43.5,30.17,WSW,245,3.0,4.0,74,0.00,,SCT,0.00,VWS V14.01,2013-05-11 06:37:00,
2013-05-10 23:42:00,51.3,43.7,30.17,West,274,1.0,7.0,75,0.00,,SCT,0.00,VWS V14.01,2013-05-11 06:42:00,
2013-05-10 23:47:00,51.0,43.0,30.17,West,266,2.0,5.0,74,0.00,,SCT,0.00,VWS V14.01,2013-05-11 06:47:00,
2013-05-10 23:52:00,51.0,43.7,30.17,WSW,250,2.0,6.0,76,0.00,,SCT,0.00,VWS V14.01,2013-05-11 06:52:00,
2013-05-10 23:57:00,51.3,44.0,30.17,West,277,6.0,8.0,76,0.00,,SCT,0.00,VWS V14.01,2013-05-11 06:57:00,